When you browse on this site, cookies collect data to enhance your experience and personalize the content and advertising you see.
Visit our Privacy Policy to learn more. By continuing to use the site, you agree to this use of cookies and data.
  • In Lithuania
  • List of Countries
  • For 7 days
  • Water Temperature
  • Weather Map
  • Weather Widgets
  • user-avatar
    Login

    Hourly Weather Gold Coast

    Today, 13 December, Friday

    Time Temperature Precipitation Wind Pressure Humidity
    00:00 +24°C° 0.1 mm 2 mps 755 mmHg 96%
    01:00 +24°C° 0.1 mm 2 mps 754 mmHg 96%
    02:00 +24°C° 0.4 mm 2 mps 754 mmHg 95%
    03:00 +24°C° 0.4 mm 2 mps 754 mmHg 95%
    04:00 +24°C° 0 mm 2 mps 754 mmHg 96%
    05:00 +24°C° 0.4 mm 2 mps 754 mmHg 91%
    06:00 +25°C° 0.4 mm 2 mps 755 mmHg 87%
    07:00 +26°C° 0.4 mm 1 mps 755 mmHg 82%
    08:00 +26°C° 0.3 mm 3 mps 755 mmHg 81%
    09:00 +27°C° 0.3 mm 4 mps 755 mmHg 80%
    10:00 +27°C° 0 mm 3 mps 755 mmHg 77%
    11:00 +27°C° 1.2 mm 3 mps 754 mmHg 80%
    12:00 +27°C° 1.2 mm 3 mps 754 mmHg 83%
    13:00 +26°C° 1.2 mm 2 mps 754 mmHg 86%
    14:00 +26°C° 0.4 mm 3 mps 753 mmHg 84%
    15:00 +26°C° 0.4 mm 3 mps 753 mmHg 83%
    16:00 +26°C° 0 mm 2 mps 753 mmHg 85%
    17:00 +25°C° 0.2 mm 2 mps 753 mmHg 88%
    18:00 +25°C° 0.2 mm 2 mps 754 mmHg 91%
    19:00 +24°C° 0.2 mm 2 mps 754 mmHg 93%
    20:00 +24°C° 0.4 mm 2 mps 755 mmHg 94%
    21:00 +24°C° 0.4 mm 2 mps 755 mmHg 95%
    22:00 +23°C° 0.4 mm 2 mps 755 mmHg 96%
    23:00 +23°C° 0.3 mm 2 mps 755 mmHg 97%

    Tomorrow, 14 December, Saturday

    Time Temperature Precipitation Wind Pressure Humidity
    00:00 +23°C° 0.3 mm 1 mps 755 mmHg 97%
    01:00 +23°C° 0.3 mm 1 mps 755 mmHg 97%
    02:00 +23°C° 0.2 mm 2 mps 754 mmHg 97%
    03:00 +21°C° 0.2 mm 2 mps 754 mmHg 97%
    04:00 +21°C° 0.2 mm 2 mps 754 mmHg 98%
    05:00 +23°C° 0.1 mm 2 mps 754 mmHg 94%
    06:00 +24°C° 0.1 mm 2 mps 754 mmHg 91%
    07:00 +25°C° 0.1 mm 2 mps 755 mmHg 87%
    08:00 +26°C° 0.1 mm 3 mps 755 mmHg 80%
    09:00 +28°C° 0.1 mm 3 mps 754 mmHg 73%
    10:00 +29°C° 0.1 mm 3 mps 754 mmHg 66%
    11:00 +29°C° 0.1 mm 3 mps 754 mmHg 66%
    12:00 +29°C° 0.1 mm 3 mps 753 mmHg 65%
    13:00 +30°C° 0.1 mm 3 mps 753 mmHg 64%
    14:00 +29°C° 0.1 mm 3 mps 752 mmHg 66%
    15:00 +29°C° 0.1 mm 3 mps 752 mmHg 67%
    16:00 +28°C° 0.1 mm 3 mps 752 mmHg 69%
    17:00 +27°C° 0 mm 3 mps 752 mmHg 76%
    18:00 +26°C° 0 mm 2 mps 753 mmHg 82%
    19:00 +24°C° 0 mm 2 mps 753 mmHg 89%
    20:00 +24°C° 0 mm 2 mps 754 mmHg 92%
    21:00 +24°C° 0 mm 2 mps 754 mmHg 94%
    22:00 +23°C° 0 mm 2 mps 754 mmHg 97%
    23:00 +23°C° 0 mm 2 mps 754 mmHg 97%

    Day after tomorrow, 15 December, Sunday

    Time Temperature Precipitation Wind Pressure Humidity
    00:00 +23°C° 0 mm 2 mps 754 mmHg 98%
    01:00 +23°C° 0 mm 2 mps 753 mmHg 98%
    02:00 +22°C° 0 mm 3 mps 753 mmHg 98%
    03:00 +22°C° 0 mm 3 mps 753 mmHg 98%
    04:00 +22°C° 0 mm 3 mps 753 mmHg 98%
    05:00 +24°C° 0 mm 3 mps 753 mmHg 91%
    06:00 +26°C° 0 mm 3 mps 754 mmHg 85%
    07:00 +27°C° 0 mm 3 mps 754 mmHg 79%
    08:00 +29°C° 0 mm 3 mps 754 mmHg 68%
    09:00 +32°C° 0 mm 4 mps 754 mmHg 58%
    10:00 +35°C° 0 mm 4 mps 754 mmHg 48%
    11:00 +35°C° 0 mm 4 mps 753 mmHg 45%
    12:00 +36°C° 0 mm 5 mps 753 mmHg 43%
    13:00 +37°C° 0 mm 5 mps 752 mmHg 41%
    14:00 +35°C° 0 mm 6 mps 752 mmHg 48%
    15:00 +34°C° 0 mm 6 mps 751 mmHg 54%
    16:00 +32°C° 0 mm 6 mps 751 mmHg 61%
    17:00 +29°C° 0 mm 5 mps 751 mmHg 70%
    18:00 +27°C° 0 mm 4 mps 751 mmHg 78%
    19:00 +26°C° 0 mm 4 mps 752 mmHg 86%
    20:00 +25°C° 0 mm 4 mps 752 mmHg 89%
    21:00 +25°C° 0 mm 3 mps 753 mmHg 92%
    22:00 +24°C° 0 mm 3 mps 753 mmHg 95%
    23:00 +24°C° 0 mm 3 mps 753 mmHg 95%

    16 December, Monday

    Time Temperature Precipitation Wind Pressure Humidity
    00:00 +24°C° 0 mm 3 mps 753 mmHg 95%
    01:00 +24°C° 0 mm 3 mps 752 mmHg 96%
    02:00 +22°C° 0 mm 3 mps 752 mmHg 96%
    03:00 +22°C° 0 mm 3 mps 752 mmHg 96%
    04:00 +22°C° 0 mm 3 mps 752 mmHg 97%
    05:00 +25°C° 0 mm 3 mps 752 mmHg 89%
    06:00 +26°C° 0 mm 3 mps 753 mmHg 81%
    07:00 +28°C° 0 mm 3 mps 753 mmHg 73%
    08:00 +31°C° 0 mm 3 mps 753 mmHg 58%
    09:00 +36°C° 0 mm 3 mps 753 mmHg 43%
    10:00 +39°C° 0 mm 3 mps 753 mmHg 28%
    11:00 +40°C° 0 mm 3 mps 752 mmHg 26%
    12:00 +40°C° 0 mm 3 mps 752 mmHg 25%
    13:00 +40°C° 0 mm 3 mps 751 mmHg 24%
    14:00 +39°C° 0 mm 3 mps 751 mmHg 29%
    15:00 +37°C° 0 mm 3 mps 751 mmHg 34%
    16:00 +35°C° 0 mm 3 mps 751 mmHg 39%
    17:00 +33°C° 0 mm 5 mps 752 mmHg 44%
    18:00 +29°C° 0 mm 6 mps 753 mmHg 50%
    19:00 +27°C° 0 mm 7 mps 754 mmHg 56%
    20:00 +26°C° 0 mm 7 mps 755 mmHg 64%
    21:00 +24°C° 0 mm 7 mps 756 mmHg 72%
    22:00 +23°C° 0 mm 7 mps 757 mmHg 79%
    23:00 +23°C° 0 mm 7 mps 757 mmHg 80%

    17 December, Tuesday

    Time Temperature Precipitation Wind Pressure Humidity
    00:00 +22°C° 0 mm 7 mps 757 mmHg 80%
    01:00 +22°C° 0 mm 7 mps 757 mmHg 81%
    02:00 +21°C° 0 mm 6 mps 757 mmHg 81%
    03:00 +21°C° 0 mm 6 mps 757 mmHg 82%
    04:00 +20°C° 0 mm 6 mps 757 mmHg 82%
    05:00 +21°C° 0 mm 6 mps 758 mmHg 76%
    06:00 +22°C° 0 mm 6 mps 758 mmHg 71%
    07:00 +23°C° 0 mm 7 mps 759 mmHg 65%
    08:00 +24°C° 0 mm 7 mps 759 mmHg 60%
    09:00 +26°C° 0 mm 7 mps 759 mmHg 55%
    10:00 +28°C° 0 mm 7 mps 759 mmHg 49%
    11:00 +28°C° 0 mm 7 mps 759 mmHg 48%
    12:00 +28°C° 0 mm 7 mps 759 mmHg 46%
    13:00 +28°C° 0 mm 8 mps 758 mmHg 44%
    14:00 +28°C° 0 mm 7 mps 758 mmHg 46%
    15:00 +27°C° 0 mm 7 mps 758 mmHg 48%
    16:00 +26°C° 0 mm 7 mps 758 mmHg 50%
    17:00 +24°C° 0 mm 7 mps 759 mmHg 58%
    18:00 +22°C° 0 mm 6 mps 759 mmHg 66%
    19:00 +20°C° 0 mm 6 mps 760 mmHg 74%
    20:00 +19°C° 0 mm 5 mps 760 mmHg 78%
    21:00 +19°C° 0 mm 5 mps 760 mmHg 82%
    22:00 +18°C° 0 mm 4 mps 761 mmHg 86%
    23:00 +18°C° 0 mm 4 mps 760 mmHg 87%

    18 December, Wednesday

    Time Temperature Precipitation Wind Pressure Humidity
    00:00 +17°C° 0 mm 4 mps 760 mmHg 89%
    01:00 +17°C° 0 mm 4 mps 760 mmHg 90%
    02:00 +16°C° 0 mm 3 mps 760 mmHg 91%
    03:00 +16°C° 0 mm 3 mps 760 mmHg 91%
    04:00 +16°C° 0 mm 3 mps 760 mmHg 91%
    05:00 +18°C° 0 mm 3 mps 760 mmHg 82%
    06:00 +20°C° 0 mm 3 mps 760 mmHg 73%
    07:00 +22°C° 0 mm 4 mps 761 mmHg 63%
    08:00 +23°C° 0 mm 4 mps 761 mmHg 56%
    09:00 +26°C° 0 mm 4 mps 761 mmHg 50%
    10:00 +28°C° 0 mm 4 mps 761 mmHg 43%
    11:00 +28°C° 0 mm 4 mps 760 mmHg 42%
    12:00 +28°C° 0 mm 4 mps 760 mmHg 41%
    13:00 +29°C° 0 mm 5 mps 759 mmHg 40%
    14:00 +28°C° 0 mm 5 mps 759 mmHg 43%
    15:00 +27°C° 0 mm 4 mps 759 mmHg 45%
    16:00 +27°C° 0 mm 4 mps 758 mmHg 48%
    17:00 +25°C° 0 mm 4 mps 759 mmHg 56%
    18:00 +22°C° 0 mm 3 mps 759 mmHg 64%
    19:00 +20°C° 0 mm 3 mps 760 mmHg 72%
    20:00 +19°C° 0 mm 2 mps 760 mmHg 75%
    21:00 +18°C° 0 mm 2 mps 760 mmHg 78%
    22:00 +18°C° 0 mm 2 mps 761 mmHg 81%
    23:00 +17°C° 0 mm 2 mps 760 mmHg 83%
    Show more